Погода в Хвалынске

Погода в Хвалынске : погода сейчас, прогноз погоды и архив. Всё, что Вы хотите узнать о погоде в Хвалынске!

Поиск расширенной информации на нашем сайте:

Другие новости

Новости СМИ2

Главная страница сайта

Новости сайта

03.07.2017

Напоминаем, что на нашем специализированном сайте Метеоцентр.Азия вы можете получить высокодетализированные автоматические прогнозы погоды по пунктам России, СНГ и мира в авиационном формате (включающие направление и скорость ветра, видимость, явления погоды, количество и форму облачности, нижнюю и верхнюю границу облачности).

Рекомендуем: Подшипники роликовые в кахастане: покупка роликовых подшипников podshipnik-rti.kz.

Погода в Хвалынске - сегодня

Время (UTC), дата Ветер
(°,м/с) 
Видим.   Явления Облачность Т
(°С)
Тd
(°С)
f(%) Тe
(°С)
Pmin
(гПа)
dP
(гПа)
Po
(мм)
O2
(г/м3)
Тmin Tmax R s Состояние
почвы
18 21.09.18 290 (З) 20000 м    10/10 1050 м 
[Sc]
+17.7 +12.5 72 +23  1016.6  1.3  757  284           
21 21.09.18 280 (З) 20000 м    4/4 1000 м 
[Sc]
+16.9 +12.3 74 +22  1017.4  0.8  757  285           
00 22.09.18 тихо ()   20000 м    ясно 
+14.6 +13.8 95 +21  1018.6  1.1  758  287           
03 22.09.18 190 (Ю) 20000 м    4/3 1000 м средняя 
[Sc|Ac trans]
+14.5 +13.9 96 +23  1019.6  759  287  +14.3        сухая 
06 22.09.18 140 (ЮВ) 20000 м    10/0 средняя, верхняя 
[Ac trans|Cc]
+19.2 +15.4 79 +29  1020  0.6  759  283           
09 22.09.18 140 (ЮВ) 20000 м    10/3 1000 м верхняя 
[Cu hum|Ci fib]
+22.8 +15.1 62 +31  1019.5  -0.4  759  279           
12 22.09.18 170 (Ю) 20000 м    6/4 1000 м верхняя 
[Sc diur, vesp|Ci fib]
+24 +13 50 +29  1018.4  -1  758  278           
18 22.09.18 240 (ЮЗ) 20000 м    ясно 
+19.4 +12.2 63 +24  1017.9  0.1  758  283           
21 22.09.18 270 (З) 20000 м    ясно 
+18.2 +12.1 68 +24  1017.9  0.1  758  284           
00 23.09.18 320 (СЗ) 20000 м    ясно 
+15.6 +13.6 88 +23  1017.8  -0.2  757  286           
06 23.09.18 140 (ЮВ) 20000 м    ясно 
+19 +14.3 74 +27  1016.6  -0.5  757  282           
09 23.09.18 170 (Ю) 20000 м    ясно 
+24.3 +11.9 46 +28  1015.2  -1.3  756  277           
15 23.09.18 200 (Ю) 20000 м    ясно 
+19.9 +10.7 55 +23  1011.4  -1.8  753  281    +25.4       
18 23.09.18 190 (Ю) 20000 м    ясно 
+18 +7.8 51 +18  1010.4  -1  752  283           
21 23.09.18 180 (Ю) 4{10}  20000 м    4/0 верхняя 
[Ci fib]
+16.1 +3.9 44 +16  1009  -1.4  751  285           
00 24.09.18 190 (Ю) 20000 м    10/0 верхняя 
[Ci fib]
+14 +4.5 53 +14  1007.2  -1.8  750  287           
03 24.09.18 180 (Ю) 20000 м    10/6 1000 м верхняя 
[Sc|Ci fib]
+15 +7 59 +15  1006  -1.1  749  285  +13.9        сухая 
15 24.09.18 320 (СЗ) 20000 м  {ливн. осадки}  10/10 720 м 
[Sc]
+12.2 +11.9 98 +16  1009.9  752  288    +15.9     
21 24.09.18 250 (З) 20000 м    10/10 600 м 
[Sc]
+11.2 +10.3 94 +14  1010.3  0.3  752  289           
00 25.09.18 тихо ()   20000 м    3/0 верхняя 
[Ci fib]
+9.4 +8.4 93 +9  1010.4  752  291           
03 25.09.18 190 (Ю) 20000 м    3/0 верхняя 
[Ci fib]
+9.2 +7.3 88 +9  1009.5  -0.9  751  292  +8.3        влажная 
15 25.09.18 180 (Ю) 5{14}  20000 м    10/0 средняя 
[Ac und]
+17.8 +9.5 58 +19  1007.2  0.5  750  282    +18.2       
18 25.09.18 230 (ЮЗ) 20000 м    10/0 средняя 
[Ac und]
+16.1 +13.1 82 +23  1007.6  0.3  750  283           
21 25.09.18 280 (З) 20000 м    10/0 средняя 
[Ac und]
+10.9 +8.7 86 +11  1009.3  1.5  751  289           
00 26.09.18 270 (З) 20000 м    8/0 средняя 
[Ac As]
+9.7 +7.5 86 +9  1011.7  2.4  753  292           
Время (UTC), дата Ветер
(°,м/с) 
Видим.   Явления Облачность Т
(°С)
Тd
(°С)
f(%) Тe
(°С)
Pmin
(гПа)
dP
(гПа)
Po
(мм)
O2
(г/м3)
Тmin Tmax R s Состояние
почвы

Для получения пояснительной информации подведите курсор к названию столбца.

ПОГОДА в Хвалынске - архив

Всё, что Вы хотите узнать о погоде в Хвалынске - удобно и подробно!

Выберите нужную дату (начиная с 1 января 2015* года) и нажмите кнопку "Найти".
Будут отображены архивные сводки погоды по пункту Хвалынск, начиная с указанной даты.


Отображать данные в формате CSV (для использования в таблицах Excel)


Внимание! Наш архив погоды предназначен исключительно для личного некоммерческого использования в познавательных целях. Если Вам необходимы официальные справки о состоянии погоды (для производственных, юридических, коммерческих и т.п. целей), обращайтесь в органы Росгидромета.

*Примечание: данная дата относится к архиву по метеостанциям СССР (Россия, СНГ, Балтия).
Архив по метеостанциям Зарубежной Европы и Азии (кроме Китая) хранится 10 дней, по другим регионам земного шара (Китай, Африка, Америка, Австралия, Океания) - 1 день.

Хвалынск - район местоположения метеостанции


Название, широта, долгота, высота метеостанции:
Хвалынск 52.5°ш. 48.1°д. 88 м над ур. моря [Российская Федерация]

Дополнительная информация

В oтличие oт бoльшинства пoгoдных сайтoв мы публикуем пoдрoбную метеoинфoрмацию в детальнoм прoфессиoнальнoм фoрмате.

Характеристики температуры и влажнoсти вoздуха измеряются на высoте 2 м в тени вдали oт зданий и деревьев.
Скoрoсть ветра измеряется на высoте 10 м (на урoвне рoста челoвека скoрoсть ветра ниже в 1.5-2 раза). Если метеoстанция нахoдится в гoрoде или в лесу, тo скoрoсть ветра занижена на 2-4 м/с пo сравнению с oткрытым местoм. Скoрoсть ветра над акватoриями крупных рек и oзёр, а также на вершинах хoлмoв на 2-5 м/с выше, чем в oбычных услoвиях.
Атмoсфернoе давление в разных тoчках местнoсти мoжет значительнo oтличаться oт давления на метеoстанции, в зависимoсти oт услoвий рельефа (при пoдъёме на 10 м давление пoнижается примернo на 1 мм рт.ст.).